When you browse on this site, cookies collect data to enhance your experience and personalize the content and advertising you see.
Visit our Privacy Policy to learn more. By continuing to use the site, you agree to this use of cookies and data.
  • In Hungary
  • List of Countries
  • For 7 days
  • Water Temperature
  • Satellite Maps
  • Weather Map
  • News
  • Weather Widgets
  • user-avatar
    Login

    Hourly Weather Jarocin

    Today, 24 January, Thursday

    Time Temperature Precipitation Wind Pressure Humidity
    00:00 -9°C° 0 mm 4 mps 749 mmHg 71%
    01:00 -9°C° 0 mm 4 mps 749 mmHg 70%
    02:00 -9°C° 0 mm 4 mps 749 mmHg 71%
    03:00 -10°C° 0 mm 4 mps 749 mmHg 72%
    04:00 -10°C° 0 mm 4 mps 749 mmHg 73%
    05:00 -10°C° 0 mm 4 mps 750 mmHg 74%
    06:00 -10°C° 0 mm 4 mps 750 mmHg 75%
    07:00 -11°C° 0 mm 4 mps 750 mmHg 76%
    08:00 -10°C° 0 mm 4 mps 750 mmHg 75%
    09:00 -10°C° 0 mm 4 mps 751 mmHg 73%
    10:00 -11°C° 0 mm 5 mps 751 mmHg 72%
    11:00 -10°C° 0 mm 5 mps 751 mmHg 69%
    12:00 -10°C° 0 mm 5 mps 751 mmHg 66%
    13:00 -10°C° 0 mm 5 mps 751 mmHg 64%
    14:00 -10°C° 0 mm 5 mps 751 mmHg 65%
    15:00 -10°C° 0 mm 5 mps 751 mmHg 66%
    16:00 -10°C° 0 mm 5 mps 751 mmHg 67%
    17:00 -10°C° 0 mm 5 mps 751 mmHg 70%
    18:00 -10°C° 0 mm 5 mps 751 mmHg 72%
    19:00 -10°C° 0 mm 5 mps 752 mmHg 74%
    20:00 -10°C° 0 mm 5 mps 752 mmHg 74%
    21:00 -10°C° 0 mm 5 mps 752 mmHg 74%
    22:00 -10°C° 0 mm 5 mps 752 mmHg 74%
    23:00 -10°C° 0 mm 5 mps 752 mmHg 74%

    Tomorrow, 25 January, Friday

    Time Temperature Precipitation Wind Pressure Humidity
    00:00 -11°C° 0 mm 5 mps 752 mmHg 74%
    01:00 -11°C° 0 mm 5 mps 752 mmHg 75%
    02:00 -11°C° 0 mm 5 mps 751 mmHg 75%
    03:00 -11°C° 0 mm 5 mps 751 mmHg 75%
    04:00 -11°C° 0 mm 5 mps 751 mmHg 75%
    05:00 -11°C° 0.2 mm 5 mps 751 mmHg 78%
    06:00 -10°C° 0.2 mm 4 mps 751 mmHg 80%
    07:00 -10°C° 0.2 mm 4 mps 751 mmHg 83%
    08:00 -10°C° 0.2 mm 4 mps 751 mmHg 83%
    09:00 -10°C° 0.2 mm 4 mps 751 mmHg 84%
    10:00 -10°C° 0.2 mm 4 mps 751 mmHg 84%
    11:00 -10°C° 0.3 mm 4 mps 751 mmHg 84%
    12:00 -8°C° 0.3 mm 3 mps 751 mmHg 83%
    13:00 -8°C° 0.3 mm 3 mps 751 mmHg 83%
    14:00 -7°C° 0.1 mm 2 mps 751 mmHg 83%
    15:00 -7°C° 0.1 mm 2 mps 751 mmHg 84%
    16:00 -6°C° 0.1 mm 1 mps 751 mmHg 84%
    17:00 -6°C° 0.2 mm 1 mps 751 mmHg 86%
    18:00 -6°C° 0.2 mm 1 mps 751 mmHg 88%
    19:00 -6°C° 0.2 mm 1 mps 751 mmHg 89%
    20:00 -6°C° 0.1 mm 1 mps 751 mmHg 90%
    21:00 -6°C° 0.1 mm 1 mps 751 mmHg 90%
    22:00 -7°C° 0.1 mm 2 mps 751 mmHg 90%
    23:00 -7°C° 0 mm 2 mps 751 mmHg 89%

    Day after tomorrow, 26 January, Saturday

    Time Temperature Precipitation Wind Pressure Humidity
    00:00 -8°C° 0 mm 3 mps 751 mmHg 88%
    01:00 -8°C° 0 mm 3 mps 751 mmHg 87%
    02:00 -8°C° 0 mm 3 mps 750 mmHg 88%
    03:00 -8°C° 0 mm 3 mps 750 mmHg 88%
    04:00 -8°C° 0 mm 2 mps 750 mmHg 89%
    05:00 -9°C° 0 mm 3 mps 750 mmHg 88%
    06:00 -9°C° 0 mm 3 mps 750 mmHg 88%
    07:00 -9°C° 0 mm 3 mps 749 mmHg 88%
    08:00 -9°C° 0 mm 4 mps 749 mmHg 85%
    09:00 -9°C° 0 mm 4 mps 748 mmHg 83%
    10:00 -8°C° 0 mm 5 mps 748 mmHg 81%
    11:00 -8°C° 0.4 mm 5 mps 747 mmHg 85%
    12:00 -8°C° 0.4 mm 5 mps 746 mmHg 88%
    13:00 -9°C° 0.4 mm 6 mps 745 mmHg 92%
    14:00 -8°C° 0.7 mm 6 mps 744 mmHg 93%
    15:00 -7°C° 0.7 mm 5 mps 743 mmHg 93%
    16:00 -6°C° 0.7 mm 5 mps 742 mmHg 94%
    17:00 -5°C° 0.4 mm 5 mps 742 mmHg 94%
    18:00 -2°C° 0.4 mm 5 mps 742 mmHg 95%
    19:00 -1°C° 0.4 mm 5 mps 742 mmHg 95%
    20:00 -1°C° 0.1 mm 4 mps 742 mmHg 96%
    21:00 -1°C° 0.1 mm 4 mps 742 mmHg 96%
    22:00 -2°C° 0.1 mm 4 mps 743 mmHg 96%
    23:00 -2°C° 0 mm 3 mps 743 mmHg 96%

    27 January, Sunday

    Time Temperature Precipitation Wind Pressure Humidity
    00:00 -4°C° 0 mm 2 mps 743 mmHg 96%
    01:00 -5°C° 0 mm 2 mps 744 mmHg 95%
    02:00 -5°C° 0 mm 2 mps 744 mmHg 95%
    03:00 -5°C° 0 mm 2 mps 744 mmHg 94%
    04:00 -6°C° 0 mm 2 mps 744 mmHg 94%
    05:00 -6°C° 0 mm 2 mps 744 mmHg 94%
    06:00 -7°C° 0 mm 3 mps 743 mmHg 94%
    07:00 -6°C° 0 mm 3 mps 743 mmHg 95%
    08:00 -6°C° 0.2 mm 3 mps 743 mmHg 95%
    09:00 -5°C° 0.2 mm 3 mps 743 mmHg 96%
    10:00 -4°C° 0.2 mm 3 mps 743 mmHg 96%
    11:00 -2°C° 0.3 mm 3 mps 742 mmHg 97%
    12:00 -1°C° 0.3 mm 3 mps 742 mmHg 98%
    13:00 -1°C° 0.3 mm 4 mps 741 mmHg 99%
    14:00 -1°C° 0 mm 4 mps 741 mmHg 98%
    15:00 -1°C° 0 mm 4 mps 740 mmHg 98%
    16:00 -1°C° 0 mm 4 mps 740 mmHg 97%
    17:00 -1°C° 0 mm 4 mps 739 mmHg 96%
    18:00 -2°C° 0 mm 4 mps 739 mmHg 94%
    19:00 -2°C° 0 mm 4 mps 739 mmHg 93%
    20:00 -2°C° 0 mm 4 mps 739 mmHg 91%
    21:00 -2°C° 0 mm 4 mps 739 mmHg 89%
    22:00 -1°C° 0 mm 5 mps 739 mmHg 87%
    23:00 -1°C° 0.1 mm 4 mps 739 mmHg 86%

    28 January, Monday

    Time Temperature Precipitation Wind Pressure Humidity
    00:00 -2°C° 0.1 mm 4 mps 738 mmHg 86%
    01:00 -2°C° 0.1 mm 4 mps 738 mmHg 85%
    02:00 -2°C° 0.1 mm 4 mps 738 mmHg 88%
    03:00 -2°C° 0.1 mm 4 mps 737 mmHg 90%
    04:00 -2°C° 0.1 mm 4 mps 737 mmHg 92%
    05:00 -2°C° 0 mm 4 mps 737 mmHg 91%
    06:00 -3°C° 0 mm 4 mps 737 mmHg 91%
    07:00 -3°C° 0 mm 4 mps 737 mmHg 90%
    08:00 -4°C° 0 mm 5 mps 737 mmHg 89%
    09:00 -2°C° 0 mm 5 mps 737 mmHg 88%
    10:00 -2°C° 0 mm 6 mps 738 mmHg 86%
    11:00 -2°C° 0 mm 6 mps 737 mmHg 86%
    12:00 -1°C° 0 mm 6 mps 737 mmHg 86%
    13:00 -1°C° 0 mm 6 mps 737 mmHg 86%
    14:00 -1°C° 0 mm 6 mps 737 mmHg 85%
    15:00 -1°C° 0 mm 6 mps 737 mmHg 83%
    16:00 -2°C° 0 mm 6 mps 737 mmHg 81%
    17:00 -2°C° 0 mm 6 mps 738 mmHg 81%
    18:00 -2°C° 0 mm 6 mps 738 mmHg 81%
    19:00 -2°C° 0 mm 7 mps 738 mmHg 82%
    20:00 -2°C° 0 mm 6 mps 739 mmHg 84%
    21:00 -1°C° 0 mm 5 mps 739 mmHg 87%
    22:00 -1°C° 0 mm 5 mps 739 mmHg 90%
    23:00 -2°C° 0 mm 5 mps 740 mmHg 91%

    29 January, Tuesday

    Time Temperature Precipitation Wind Pressure Humidity
    00:00 -2°C° 0 mm 4 mps 740 mmHg 91%
    01:00 -3°C° 0 mm 4 mps 740 mmHg 91%
    02:00 -3°C° 0 mm 4 mps 740 mmHg 91%
    03:00 -3°C° 0 mm 4 mps 741 mmHg 92%
    04:00 -3°C° 0 mm 4 mps 741 mmHg 92%
    05:00 -4°C° 0 mm 4 mps 741 mmHg 93%
    06:00 -4°C° 0 mm 3 mps 741 mmHg 94%
    07:00 -4°C° 0 mm 3 mps 741 mmHg 94%
    08:00 -4°C° 0 mm 3 mps 742 mmHg 93%
    09:00 -2°C° 0 mm 3 mps 742 mmHg 92%
    10:00 -2°C° 0 mm 3 mps 742 mmHg 92%
    11:00 -1°C° 0 mm 3 mps 742 mmHg 91%
    12:00 -1°C° 0 mm 3 mps 742 mmHg 90%
    13:00 -1°C° 0 mm 3 mps 742 mmHg 90%
    14:00 -1°C° 0 mm 3 mps 742 mmHg 90%
    15:00 -1°C° 0 mm 2 mps 742 mmHg 89%
    16:00 -1°C° 0 mm 2 mps 742 mmHg 89%
    17:00 -2°C° 0 mm 2 mps 742 mmHg 90%
    18:00 -2°C° 0 mm 2 mps 743 mmHg 91%
    19:00 -2°C° 0 mm 2 mps 743 mmHg 91%
    20:00 -3°C° 0 mm 2 mps 743 mmHg 91%
    21:00 -3°C° 0 mm 2 mps 743 mmHg 91%
    22:00 -4°C° 0 mm 2 mps 743 mmHg 92%
    23:00 -4°C° 0 mm 2 mps 743 mmHg 91%
    Show more